Abilene Dyess, TX

2:11 AM CST on December 15, 2019 (GMT -0600)
Dyess Air Force Base

Weather History for KDYS - November, 2019

Change the Weather History Date:

Tuesday, November 12, 2019

  Actual Average Record
Temperature  
Mean Temperature 26 °F -  
Max Temperature 34 °F 64 °F 79 °F (2007)
Min Temperature 19 °F 45 °F 19 °F (2019)
Degree Days  
Heating Degree Days 38    
Moisture  
Dew Point 8 °F    
Average Humidity 48    
Maximum Humidity 73    
Minimum Humidity 27    
Precipitation  
Precipitation 0.00 in - - ()
Sea Level Pressure  
Sea Level Pressure 30.60 in    
Wind  
Wind Speed 12 mph (NNW)    
Max Wind Speed 20 mph    
Max Gust Speed 24 mph    
Visibility 10 miles    
Events      
Averages and records for this station are not official NWS values.
T = Trace of Precipitation, MM = Missing Value Source: NWS Daily Summary

Daily Weather History Graph

Daily Weather History Graph

Search for Another Location

Airport or City:

Astronomy

Nov. 12, 2019 Rise Set
Actual Time 7:06 AM CST 5:40 PM CST
Civil Twilight 6:40 AM CST 6:06 PM CST
Nautical Twilight 6:10 AM CST 6:36 PM CST
Astronomical Twilight 5:41 AM CST 7:05 PM CST
Moon 6:07 PM CST (11/12) 7:02 AM CST (11/12)
Length of Visible Light 11h 26m
Length of Day
10h 34m
Full, 100% of the Moon is Illuminated
Nov 12
Full
Nov 19
Last Quarter
Nov 26
New
Dec 4
First Quarter
Dec 11
Full

Hourly Weather History & Observations

Time (CST) Temp. Windchill Dew Point Humidity Pressure Visibility Wind Dir Wind Speed Gust Speed Precip Events Conditions
12:56 AM 26.2 °F 13.0 °F 10.0 °F 50% 30.68 in 10.0 mi North 18.4 mph 24.2 mph N/A   Clear
1:56 AM 25.3 °F 11.8 °F 8.8 °F 50% 30.69 in 10.0 mi NNW 18.4 mph 24.2 mph N/A   Clear
2:56 AM 24.1 °F 9.8 °F 7.7 °F 50% 30.71 in 10.0 mi North 19.6 mph 24.2 mph N/A   Clear
3:56 AM 23.0 °F 10.1 °F 7.5 °F 52% 30.73 in 10.0 mi North 15.0 mph - N/A   Clear
4:56 AM 21.7 °F 8.0 °F 5.9 °F 51% 30.73 in 10.0 mi NNW 16.1 mph 21.9 mph N/A   Clear
5:56 AM 20.8 °F 6.4 °F 5.0 °F 50% 30.71 in 10.0 mi North 17.3 mph 21.9 mph N/A   Clear
6:56 AM 19.8 °F 7.7 °F 5.4 °F 54% 30.73 in 10.0 mi North 11.5 mph - N/A   Clear
7:56 AM 19.6 °F 8.1 °F 5.5 °F 55% 30.74 in 10.0 mi North 10.4 mph - N/A   Clear
9:56 AM 24.3 °F 14.6 °F 3.9 °F 42% 30.74 in 10.0 mi North 9.2 mph - N/A   Partly Cloudy
10:56 AM 27.3 °F 16.6 °F 2.7 °F 35% 30.71 in 10.0 mi North 12.7 mph - N/A   Clear
11:56 AM 28.6 °F 19.9 °F 1.8 °F 32% 30.68 in 10.0 mi North 9.2 mph - N/A   Partly Cloudy
12:56 PM 30.6 °F 22.4 °F 3.6 °F 32% 30.63 in 10.0 mi North 9.2 mph - N/A   Scattered Clouds
1:56 PM 32.5 °F 28.1 °F 1.4 °F 27% 30.58 in 10.0 mi North 4.6 mph - N/A   Scattered Clouds
3:56 PM 34.2 °F - 4.5 °F 29% 30.54 in 10.0 mi Calm Calm - N/A   Scattered Clouds
4:56 PM 33.8 °F 30.8 °F 4.1 °F 29% 30.51 in 10.0 mi West 3.5 mph - N/A   Scattered Clouds
5:56 PM 32.4 °F - 8.4 °F 37% 30.49 in 10.0 mi Calm Calm - N/A   Clear
6:56 PM 31.3 °F - 12.4 °F 46% 30.48 in 10.0 mi Calm Calm - N/A   Clear
7:56 PM 28.8 °F 23.7 °F 17.8 °F 64% 30.48 in 10.0 mi South 4.6 mph - N/A   Clear
8:56 PM 27.1 °F 23.2 °F 15.1 °F 60% 30.47 in 10.0 mi South 3.5 mph - N/A   Clear
9:56 PM 24.4 °F 18.6 °F 17.1 °F 73% 30.45 in 10.0 mi SSE 4.6 mph - N/A   Clear
10:56 PM 24.4 °F 17.5 °F 16.7 °F 72% 30.41 in 10.0 mi South 5.8 mph - N/A   Clear
11:56 PM 25.2 °F 17.3 °F 14.7 °F 65% 30.38 in 10.0 mi South 6.9 mph - N/A   Clear